TimePDT,TemperatureF,Dew PointF,Humidity,Sea Level PressureIn,VisibilityMPH,Wind Direction,Wind SpeedMPH,Gust SpeedMPH,PrecipitationIn,Events,Conditions,WindDirDegrees,DateUTC
12:53 AM,64.0,48.9,58,30.00,10.0,NE,8.1,-,N/A,,Clear,50,2013-09-12 07:53:00
1:53 AM,64.9,48.9,56,30.00,10.0,NE,9.2,-,N/A,,Clear,50,2013-09-12 08:53:00
2:53 AM,61.0,48.9,64,30.00,10.0,NNE,6.9,-,N/A,,Clear,30,2013-09-12 09:53:00
3:53 AM,57.9,48.9,72,30.00,10.0,NE,6.9,-,N/A,,Clear,50,2013-09-12 10:53:00
4:53 AM,59.0,48.9,69,30.01,10.0,ENE,6.9,-,N/A,,Clear,60,2013-09-12 11:53:00
5:53 AM,64.0,48.9,58,30.00,10.0,NNE,9.2,-,N/A,,Clear,30,2013-09-12 12:53:00
6:53 AM,64.9,48.9,56,30.01,10.0,NNE,10.4,-,N/A,,Clear,30,2013-09-12 13:53:00
7:53 AM,70.0,50.0,49,30.01,10.0,NNE,10.4,-,N/A,,Clear,20,2013-09-12 14:53:00
8:53 AM,75.0,50.0,41,30.00,10.0,NNE,11.5,-,N/A,,Clear,30,2013-09-12 15:53:00
9:53 AM,80.1,51.1,36,29.99,10.0,NNE,10.4,-,N/A,,Clear,30,2013-09-12 16:53:00
10:53 AM,82.9,48.9,31,29.99,10.0,NNE,12.7,-,N/A,,Clear,30,2013-09-12 17:53:00
11:53 AM,87.1,51.1,29,29.96,10.0,Variable,5.8,-,N/A,,Clear,0,2013-09-12 18:53:00
12:53 PM,88.0,50.0,27,29.95,10.0,East,5.8,-,N/A,,Clear,80,2013-09-12 19:53:00
1:53 PM,89.1,48.0,24,29.92,10.0,North,8.1,-,N/A,,Clear,10,2013-09-12 20:53:00
2:53 PM,90.0,46.9,23,29.90,10.0,ENE,4.6,-,N/A,,Clear,70,2013-09-12 21:53:00
3:53 PM,90.0,46.9,23,29.89,10.0,Calm,Calm,-,N/A,,Clear,0,2013-09-12 22:53:00
4:53 PM,90.0,48.0,24,29.88,10.0,Calm,Calm,-,N/A,,Clear,0,2013-09-12 23:53:00
5:53 PM,84.0,55.0,37,29.86,10.0,Calm,Calm,-,N/A,,Clear,0,2013-09-13 00:53:00
6:53 PM,78.1,55.9,46,29.86,10.0,Calm,Calm,-,N/A,,Clear,0,2013-09-13 01:53:00
7:53 PM,70.0,54.0,57,29.87,10.0,NW,3.5,-,N/A,,Clear,320,2013-09-13 02:53:00
8:53 PM,64.0,53.1,67,29.87,10.0,Calm,Calm,-,N/A,,Clear,0,2013-09-13 03:53:00
9:53 PM,61.0,53.1,75,29.86,10.0,NE,3.5,-,N/A,,Clear,40,2013-09-13 04:53:00
10:53 PM,64.0,52.0,65,29.85,10.0,WNW,3.5,-,N/A,,Clear,290,2013-09-13 05:53:00
11:53 PM,57.0,51.1,81,29.85,10.0,Calm,Calm,-,N/A,,Clear,0,2013-09-13 06:53:00